    Observer details:
    033 Karl Schwarzschild Observatory, Tautenburg.  Observers U. Laux,
        B. Stecklum.  Measurer B. Stecklum.  1.34-m f/3 Schmidt + CCD.
    104 San Marcello Pistoiese.  Observers P. Bacci, M. Maestripieri, M. D. Grazia.
        Measurers P. Bacci, L. Tesi, G. Fagioli.  0.60-m f/4 reflector + CCD.
    107 Cavezzo.  Observer R. Bonomi.  0.4-m f/5.5 reflector + CCD.
    160 Castelmartini.  Observers M. Jaeger, E. Prosperi, S. Prosperi, W. Vollmann.
        Measurer E. Prosperi.  0.35-m f/10 Schmidt-Cassegrain + CCD.
    658 National Research Council of Canada.  Observer D. D. Balam.  1.82-m
        Plaskett telescope + CCD.
    900 Moriyama.  Observer Y. Ikari.  0.26-m f/7.0 reflector + CCD.
    B74 Santa Maria de Montmagastrell.  Observer J. M. Bosch.  0.40-m f/10
        Schmidt-Cassegrain + CCD.
    C47 Nonndorf.  Observer G. Dangl.  0.25-m f/4.8 reflector + CCD.
    C77 Bernezzo Observatory.  Observer A. Mantero.  0.25-m f/4.0 reflector + CCD.
    G34 Oberfrauendorf.  Observer T. Felber.  0.25-m f/10 Schmidt-Cassegrain + CCD
        + f/6.3 focal reducer.
    H01 Magdalena Ridge Observatory, Socorro.  Observers W. H. Ryan, E. V. Ryan.
        Measurer W. H. Ryan.  2.4-m f/8.9 reflector + CCD.
    H21 Astronomical Research Observatory, Westfield.  Observer R. Holmes.
        Measurers S. Foglia, L. Buzzi, T. Linder, R. Holmes.  0.61-m f/4.5
        astrograph + CCD.
    H36 Sandlot Observatory, Scranton.  Observer G. Hug.  0.56-m reflector + CCD.
    J69 North Observatory, Clanfield.  Observer D. Briggs.  0.41-m f/4.5 Newtonian
        reflector + CCD.
    J95 Great Shefford.  Observer P. Birtwhistle.  0.40-m f/6.0 Schmidt-Cassegrain
        + CCD.
    K61 Rokycany Observatory.  Observer M. Adamovsky.  0.51-m f/6.8 reflector
        + CCD.
    K80 Platanus Observatory, Lusowko.  Observer T. Kluwak.  0.28-m f/2.2 Schmidt
        + CCD.
    L01 Visnjan Observatory, Tican.  Observers K. Korlevic, B. Obradovic,
        V. Opacic, L. Rakijar, S. Skvorc, F. Hrzenjak, D. Marusic, E. Pettarin.
        Measurer S. Skvorc.  1.00-m reflector + CCD.
    L04 ROASTERR-1 Observatory, Cluj-Napoca.  Observer L. Hudin.  0.3-m f/5.0
        reflector + CCD.
    Q62 iTelescope Observatory, Siding Spring.  Observers S. Foglia, L. Buzzi,
        P. Concari, C. Cremaschini, G. Galli, M. Tombelli, D. Denisenko.
        Measurers S. Foglia, L. Buzzi, P. Concari, C. Cremaschini, G. Galli,
        M. Tombelli, D. Denisenko, I. Albatovskiy.  0.15-m f/7 refractor + CCD,
        0.51-m f/6.8 astrograph + CCD + f/4.5 focal reducer.
    T05 ATLAS-HKO, Haleakala.  Observers L. Denneau, A. Heinze, H. Weiland,
        B. Stalder, J. Tonry.  Measurers L. Denneau, A. Heinze, J. Tonry.  0.5-m
        f/2.0 Schmidt + CCD.
    W34 Squirrel Valley Observatory, Columbus.  Observer R. L. Flynn.  0.20-m f/10
        Schmidt-Cassegrain + CCD + f/7.0 focal reducer.
    
    Orbital elements:
    2017 PL26                                                Earth MOID = 0.0012 AU
    Epoch 2017 Sept. 4.0 TT = JDT 2458000.5                 MPC
    M 350.31143              (2000.0)            P               Q
    n   0.42763368     Peri.  144.76042     +0.97991819     -0.19761147
    a   1.7448367      Node   226.66021     +0.17350578     +0.91087369
    e   0.4619450      Incl.    2.09968     +0.09826541     +0.36229659
    P   2.30           H   22.2           G   0.15           U   5
    Residuals in seconds of arc
    170813 T05  0.3+  0.2-    170815 H36  0.3+  0.3-    170816 H01  0.2-  0.3-
    170813 T05  0.0   0.2-    170815 Q62  0.4-  0.4+    170816 H21  0.3+  0.1-
    170813 T05  0.2-  0.1-    170815 Q62  0.4-  0.0     170816 H21  0.2+  0.0
    170813 T05  0.2-  0.7+    170815 Q62  0.2-  0.6+    170816 H21  0.3+  0.2+
    170814 107  0.2+  0.5+    170815 L04  0.0   0.1+    170816 H21  0.4+  0.1+
    170814 C77  0.3-  1.0+    170815 L01  0.1+  0.3+    170816 Q62  0.2-  1.0+
    170814 C77  0.1+  0.6+    170815 L01  0.4+  0.3+    170816 Q62  1.0-  1.1+
    170814 K80  0.7-  0.4+    170815 L04  0.3-  0.2-    170816 Q62  0.6-  0.9+
    170814 K80  0.0   0.4-    170815 L04  0.1-  0.0     170816 B74  0.1+  0.2+
    170814 C77  0.4+  1.2+    170815 160  0.3-  0.3+    170816 B74  0.6+  0.1+
    170814 K80  0.0   0.1-    170815 160  0.7+  0.3+    170816 033  0.0   0.7-
    170814 107  0.4+  0.5+    170815 J95  0.2+  0.3-    170816 B74  0.3-  0.1-
    170814 107  0.5-  0.5+    170815 160  1.2-  0.1-    170816 033  0.0   0.3-
    170814 C47  0.2-  0.0     170815 J95  0.2-  0.4-    170816 033  0.3-  0.0
    170814 K61  0.4+  2.0-    170815 J69  0.6-  0.0     170816 G34  0.1+  0.4-
    170814 K61  0.6+  1.3-    170815 J95  0.1-  0.6-    170816 G34  0.3+  1.6-
    170814 K61  1.2+  1.2-    170815 160  0.1+  0.3-    170816 G34  0.6-  0.3-
    170814 C47  0.1+  0.2+    170815 160  0.5+  0.2-    170816 G34  1.2+  0.5+
    170814 C47  1.1+  0.4+    170815 J69  0.9-  0.3+    170816 G34  1.0+  0.6-
    170814 104  0.0   0.1-    170815 J69  0.3-  0.3+    170816 033  0.8-  1.0+
    170814 104  0.6+  0.3+    170816 W34  1.4-  0.6-    170816 033  0.4-  0.2+
    170814 C47  0.2+  0.2+    170816 W34  0.5-  0.4+    170817 658  0.3+  0.7+
    170814 104  0.1-  0.1-    170816 W34  0.4-  0.1-    170817 658  0.3+  0.5+
    170814 C47  0.1-  0.1-    170816 W34  0.7-  0.2-    170817 658  0.2+  0.6+
    170814 104  0.1+  0.1-    170816 H01  0.2-  0.2-    170817 900  0.1+  0.1+
    170815 H36  0.2-  0.1+    170816 H01  0.3-  0.3-    170817 900  0.5+  0.3-
    170815 H36  0.4-  0.9+    170816 H01  0.2-  0.3-
    
    Ephemeris:
    2017 PL26                a,e,i = 1.74, 0.46, 2                   q = 0.9388
    Date    TT    R. A. (2000) Decl.     Delta      r     Elong.  Phase     V
    2017 07 18    19 43 29.9 -10 14 36   0.2212  1.2342   169.1     9.0    20.0
    ...
    2017 08 02    19 26 25.1 -04 01 28   0.1347  1.1389   155.6    21.6    19.2
    ...
    2017 08 10    19 11 25.1 +02 27 10   0.09542 1.0919   143.6    33.4    18.7
    ...
    2017 08 16    18 53 05.0 +11 18 43   0.06895 1.0594   131.2    46.0    18.3
    2017 08 17    18 48 47.1 +13 24 57   0.06487 1.0542   128.6    48.6    18.2
    2017 08 18    18 43 54.8 +15 46 42   0.06092 1.0491   125.8    51.5    18.1
    ...
    2017 08 24    17 49 50.4 +37 45 24   0.04152 1.0204   101.8    75.9    18.0
    ...
    2017 09 01    11 52 58.7 +64 00 32   0.04085 0.9876    57.1   120.9    20.1
    ...
    2017 09 16    08 36 21.0 +34 24 14   0.09951 0.9476    52.1   123.1    22.2
    
    A. U. Tomatic                (C) Copyright 2017 MPC           M.P.E.C. 2017-Q17
    

    Read MPEC 2017-Q16 Read MPEC 2017-Q18


    MPEC number:

    Enter an MPEC number in one of the following forms:

    • 1997-B01 (the full form)
    • J97B01 (the packed version of the full form)
    • B01 (the abbreviated form)